Weather Roundup
Issued by NWS Springfield, MO

Home | Current Version | Previous Version | Text Only | Print | Product List | Glossary On
Versions: 1 2 3 4 5 6 7 8 9 10 11 12 13 14 15 16 17 18 19 20 21 22 23 24 25 26 27 28 29 30 31 32 33 34 35 36 37 38 39 40 41 42 43 44 45 46 47 48 49 50
000
NZUS99 KSGF 222259
HRRSGF

HOURLY WEATHER
NATIONAL WEATHER SERVICE SPRINGFIELD MO
600 PM CDT FRI MAY 22 2015

......SGF CWA......

CITY           SKY/WX    TMP DP  RH WIND       PRES   REMARKS
SPRINGFIELD    CLOUDY    64  47  53 SE9       30.21S
JOPLIN         CLOUDY    65  48  54 SE12      30.20S
WEST PLAINS    CLOUDY    65  49  56 E6        30.26F
ROLLA          CLOUDY    68  50  52 S5        30.24R
OSAGE BEACH    CLOUDY    66  52  59 E3        30.24F
BRANSON        CLOUDY    63  48  59 E6        30.23F

......SURROUNDING SGF CWA......

CITY           SKY/WX    TMP DP  RH WIND       PRES   REMARKS
CHANUTE        CLOUDY    62  50  64 SE7       30.19S
PARSONS        CLOUDY    64  52  64 CALM      30.20F
COFFEYVILLE    CLOUDY    64  51  62 E5        30.18F
EMPORIA        CLOUDY    62  47  57 SE10      30.19R
SILOAM SPRINGS CLOUDY    64  48  55 SE7       30.19F
HARRISON AR    CLOUDY    62  49  62 E9        30.22F
NEAR YELLVILLE CLOUDY    66  50  55 E5        30.21F

......KANSAS AND MISSOURI......

CITY           SKY/WX    TMP DP  RH WIND       PRES   REMARKS
KANSAS CTY INT CLOUDY    64  50  60 S6        30.22F
DOWNTOWN KC    CLOUDY    66  47  50 SE7       30.22S
COLUMBIA       PTSUNNY   67  53  61 S6        30.25R
SEDALIA        CLOUDY    67  51  56 E8        30.23F
ST JOSEPH      CLOUDY    65  49  56 SE8       30.22F
ST LOUIS       CLOUDY    74  49  41 W8        30.23F
SPIRIT OF STL  PTSUNNY   74  52  46 W6        30.22S
KIRKSVILLE     CLOUDY    66  54  65 SW6       30.24S
WICHITA        CLOUDY    62  54  74 SE13      30.14S
TOPEKA         CLOUDY    65  47  52 E12       30.20F
OLATHE         CLOUDY    62  50  64 SE9       30.22F

......TENNESSEE......

CITY           SKY/WX    TMP DP  RH WIND       PRES   REMARKS
MEMPHIS        PTSUNNY   75  45  34 E9        30.23S
NASHVILLE      MOSUNNY   74  43  32 E5        30.25F

......ARKANSAS.......

CITY           SKY/WX    TMP DP  RH WIND       PRES   REMARKS
FAYETTEVILLE   CLOUDY    64  48  56 SE7       30.20S
FT SMITH       LGT RAIN  61  56  83 E12       30.16F
LITTLE ROCK    CLOUDY    69  48  47 E8        30.21F

......OKLAHOMA.......

CITY           SKY/WX    TMP DP  RH WIND       PRES   REMARKS
TULSA          CLOUDY    63  52  67 SE8       30.16F
PONCA CITY     CLOUDY    60  54  80 SE12      30.15S
MCALESTER      LGT RAIN  59  57  93 NE3       30.15S
OKLAHOMA CITY  DRIZZLE   56  54  93 SE10      30.14F FOG

......IOWA............

CITY           SKY/WX    TMP DP  RH WIND       PRES   REMARKS
DES MOINES     CLOUDY    74  39  28 SW6       30.19S
QUAD CITIES    MOSUNNY   73  38  27 SW6       30.18S

......ILLINOIS........

CITY           SKY/WX    TMP DP  RH WIND       PRES   REMARKS
QUINCY         CLOUDY    71  51  49 SW10      30.21S
CHICAGO        CLOUDY    60  25  26 E12       30.26R



USA.gov is the U.S. government's official web portal to all federal, state and local government web resources and services.